Weather in Zarafshan

Uzbekistan     41°34′07″N   64°12′09″E
temp.,
°C
wind,
m/s
gust,
m/s
humid.,
%
clouds,
%
prec.,
mm/h
press.,
hPa
HPBL,
m
13 april, tue
tue1323:00+14nne333120 0.0 102123
02:00+12nnw12401 0.0 102110
05:00+10n12481 0.0 102110
08:00+13nnw22402 0.0 1022148
11:00+16w23310 0.0 1021909
14:00+19wnw55224 0.0 10201857
17:00+19w561726 0.0 10182035
20:00+16n46350 0.0 1018219
14 april, wed
wed1423:00+13nnw22543 0.0 101767
02:00+12nnw115725 0.0 101615
05:00+10nnw22660 0.0 101628
08:00+12sw01520 0.0 1015168
11:00+15ssw45320 0.0 10151193
14:00+18ssw77244 0.0 10132514
17:00+17nw76295 0.0 10121969
20:00+15nw79430 0.0 1013651
15 april, thu
thu1523:00+13nw22590 0.0 101343
02:00+12w33630 0.0 101343
05:00+11w33590 0.0 101430
08:00+14w35500 0.0 1015195
11:00+19w56282 0.0 1015977
14:00+21w66214 0.0 10141921
17:00+21wnw67190 0.0 10132041
20:00+19wnw46230 0.0 101484
16 april, fri
fri1623:00+16wnw11279 0.0 101411
02:00+15sw112943 0.0 101311
05:00+14ssw12316 0.0 101311
08:00+17sse23265 0.0 1014125
11:00+22sw34185 0.0 10141482
14:00+24wnw55176 0.0 10132445
17:00+24wnw4516100 0.0 10132713
20:00+22nnw33205 0.0 101318
17 april, sat
sat1723:00+19e01254 0.0 101311
02:00+19se332446 0.0 101116
05:00+17wsw3327100 0.0 101212
08:00+18wnw3525100 0.0 1013150
11:00+19nw7825100 0.0 1014598
14:00+20wnw8819100 0.0 10141426
17:00+21wnw91019100 0.0 10142012
20:00+18wnw47230 0.0 101582